When you browse on this site, cookies collect data to enhance your experience and personalize the content and advertising you see.
Visit our Privacy Policy to learn more. By continuing to use the site, you agree to this use of cookies and data.
  • In Hungary
  • List of Countries
  • For 7 days
  • Water Temperature
  • Satellite Maps
  • Weather Map
  • News
  • Weather Widgets
  • user-avatar
    Login

    Hourly Weather Skaryszewo

    Today, 22 May, Wednesday

    Time Temperature Precipitation Wind Pressure Humidity
    00:00 +13°C° 0 mm 2 mps 742 mmHg 94%
    01:00 +13°C° 0 mm 2 mps 742 mmHg 94%
    02:00 +12°C° 0 mm 2 mps 742 mmHg 94%
    03:00 +11°C° 0 mm 3 mps 742 mmHg 94%
    04:00 +11°C° 0 mm 3 mps 742 mmHg 94%
    05:00 +11°C° 0 mm 3 mps 742 mmHg 95%
    06:00 +12°C° 0 mm 3 mps 742 mmHg 89%
    07:00 +14°C° 0 mm 4 mps 742 mmHg 83%
    08:00 +15°C° 0 mm 4 mps 742 mmHg 77%
    09:00 +18°C° 0 mm 4 mps 742 mmHg 72%
    10:00 +19°C° 0 mm 4 mps 742 mmHg 68%
    11:00 +20°C° 0 mm 4 mps 742 mmHg 63%
    12:00 +21°C° 0.3 mm 4 mps 742 mmHg 64%
    13:00 +21°C° 0.3 mm 4 mps 742 mmHg 64%
    14:00 +22°C° 0.3 mm 4 mps 742 mmHg 64%
    15:00 +21°C° 0.4 mm 4 mps 742 mmHg 67%
    16:00 +21°C° 0.4 mm 3 mps 742 mmHg 69%
    17:00 +21°C° 0.4 mm 3 mps 742 mmHg 71%
    18:00 +20°C° 0.2 mm 3 mps 742 mmHg 77%
    19:00 +18°C° 0.2 mm 2 mps 742 mmHg 82%
    20:00 +17°C° 0.2 mm 2 mps 742 mmHg 88%
    21:00 +16°C° 0 mm 2 mps 742 mmHg 90%
    22:00 +15°C° 0 mm 1 mps 742 mmHg 92%
    23:00 +15°C° 0 mm 1 mps 742 mmHg 94%

    Tomorrow, 23 May, Thursday

    Time Temperature Precipitation Wind Pressure Humidity
    00:00 +14°C° 0 mm 1 mps 743 mmHg 94%
    01:00 +13°C° 0 mm 0 mps 743 mmHg 94%
    02:00 +12°C° 0 mm 0 mps 743 mmHg 94%
    03:00 +12°C° 0 mm 0 mps 743 mmHg 94%
    04:00 +12°C° 0 mm 0 mps 743 mmHg 94%
    05:00 +12°C° 0 mm 0 mps 744 mmHg 94%
    06:00 +15°C° 0 mm 1 mps 744 mmHg 89%
    07:00 +18°C° 0 mm 1 mps 744 mmHg 84%
    08:00 +20°C° 0 mm 1 mps 744 mmHg 79%
    09:00 +21°C° 0.1 mm 1 mps 744 mmHg 73%
    10:00 +23°C° 0.1 mm 1 mps 745 mmHg 67%
    11:00 +22°C° 0.1 mm 0 mps 745 mmHg 61%
    12:00 +24°C° 0.5 mm 1 mps 745 mmHg 63%
    13:00 +24°C° 0.5 mm 2 mps 745 mmHg 64%
    14:00 +24°C° 0.5 mm 3 mps 745 mmHg 66%
    15:00 +22°C° 0.7 mm 4 mps 744 mmHg 71%
    16:00 +21°C° 0.7 mm 4 mps 744 mmHg 76%
    17:00 +21°C° 0.7 mm 5 mps 744 mmHg 81%
    18:00 +19°C° 0.1 mm 5 mps 745 mmHg 83%
    19:00 +18°C° 0.1 mm 4 mps 745 mmHg 86%
    20:00 +17°C° 0.1 mm 4 mps 745 mmHg 88%
    21:00 +15°C° 0 mm 4 mps 745 mmHg 90%
    22:00 +14°C° 0 mm 4 mps 745 mmHg 91%
    23:00 +13°C° 0 mm 4 mps 746 mmHg 92%

    Day after tomorrow, 24 May, Friday

    Time Temperature Precipitation Wind Pressure Humidity
    00:00 +13°C° 0 mm 4 mps 746 mmHg 92%
    01:00 +12°C° 0 mm 4 mps 746 mmHg 91%
    02:00 +12°C° 0 mm 4 mps 746 mmHg 90%
    03:00 +11°C° 0 mm 4 mps 746 mmHg 90%
    04:00 +10°C° 0 mm 3 mps 746 mmHg 89%
    05:00 +10°C° 0 mm 3 mps 746 mmHg 88%
    06:00 +11°C° 0 mm 3 mps 746 mmHg 85%
    07:00 +12°C° 0 mm 3 mps 746 mmHg 81%
    08:00 +13°C° 0 mm 3 mps 746 mmHg 77%
    09:00 +14°C° 0 mm 3 mps 746 mmHg 76%
    10:00 +16°C° 0 mm 3 mps 746 mmHg 76%
    11:00 +17°C° 0 mm 3 mps 746 mmHg 75%
    12:00 +18°C° 0 mm 3 mps 746 mmHg 73%
    13:00 +18°C° 0 mm 4 mps 746 mmHg 71%
    14:00 +19°C° 0 mm 4 mps 746 mmHg 70%
    15:00 +19°C° 0 mm 4 mps 746 mmHg 69%
    16:00 +19°C° 0 mm 4 mps 745 mmHg 68%
    17:00 +19°C° 0 mm 4 mps 745 mmHg 66%
    18:00 +18°C° 0 mm 3 mps 745 mmHg 71%
    19:00 +17°C° 0 mm 3 mps 745 mmHg 76%
    20:00 +16°C° 0 mm 2 mps 745 mmHg 81%
    21:00 +15°C° 0 mm 2 mps 745 mmHg 84%
    22:00 +14°C° 0 mm 2 mps 745 mmHg 87%
    23:00 +12°C° 0 mm 2 mps 745 mmHg 90%

    25 May, Saturday

    Time Temperature Precipitation Wind Pressure Humidity
    00:00 +12°C° 0 mm 2 mps 745 mmHg 89%
    01:00 +11°C° 0 mm 1 mps 745 mmHg 87%
    02:00 +10°C° 0 mm 1 mps 745 mmHg 86%
    03:00 +10°C° 0 mm 1 mps 745 mmHg 85%
    04:00 +11°C° 0 mm 1 mps 745 mmHg 84%
    05:00 +11°C° 0 mm 1 mps 745 mmHg 83%
    06:00 +12°C° 0 mm 2 mps 744 mmHg 82%
    07:00 +14°C° 0 mm 2 mps 744 mmHg 80%
    08:00 +14°C° 0 mm 3 mps 744 mmHg 79%
    09:00 +17°C° 0.3 mm 4 mps 744 mmHg 75%
    10:00 +18°C° 0.3 mm 4 mps 744 mmHg 70%
    11:00 +19°C° 0.3 mm 5 mps 744 mmHg 66%
    12:00 +19°C° 0.3 mm 5 mps 744 mmHg 65%
    13:00 +20°C° 0.3 mm 5 mps 744 mmHg 64%
    14:00 +20°C° 0.3 mm 6 mps 743 mmHg 63%
    15:00 +19°C° 0.1 mm 6 mps 743 mmHg 64%
    16:00 +17°C° 0.1 mm 6 mps 743 mmHg 65%
    17:00 +17°C° 0.1 mm 6 mps 743 mmHg 67%
    18:00 +15°C° 0 mm 5 mps 744 mmHg 71%
    19:00 +14°C° 0 mm 4 mps 744 mmHg 75%
    20:00 +12°C° 0 mm 3 mps 744 mmHg 79%
    21:00 +11°C° 0 mm 3 mps 744 mmHg 83%
    22:00 +10°C° 0 mm 3 mps 744 mmHg 87%
    23:00 +9°C° 0 mm 3 mps 745 mmHg 91%

    26 May, Sunday

    Time Temperature Precipitation Wind Pressure Humidity
    00:00 +9°C° 0 mm 3 mps 745 mmHg 88%
    01:00 +9°C° 0 mm 3 mps 745 mmHg 85%
    02:00 +10°C° 0 mm 3 mps 744 mmHg 82%
    03:00 +10°C° 0 mm 3 mps 744 mmHg 81%
    04:00 +10°C° 0 mm 4 mps 744 mmHg 80%
    05:00 +10°C° 0 mm 4 mps 744 mmHg 79%
    06:00 +10°C° 0.1 mm 4 mps 744 mmHg 82%
    07:00 +10°C° 0.1 mm 5 mps 744 mmHg 84%
    08:00 +10°C° 0.1 mm 5 mps 744 mmHg 87%
    09:00 +10°C° 0.3 mm 5 mps 743 mmHg 88%
    10:00 +10°C° 0.3 mm 5 mps 743 mmHg 90%
    11:00 +10°C° 0.3 mm 6 mps 743 mmHg 91%
    12:00 +10°C° 0.2 mm 6 mps 743 mmHg 88%
    13:00 +11°C° 0.2 mm 6 mps 743 mmHg 85%
    14:00 +13°C° 0.2 mm 6 mps 743 mmHg 82%
    15:00 +12°C° 0.1 mm 7 mps 743 mmHg 78%
    16:00 +12°C° 0.1 mm 7 mps 743 mmHg 74%
    17:00 +12°C° 0.1 mm 7 mps 743 mmHg 70%
    18:00 +11°C° 0 mm 7 mps 743 mmHg 72%
    19:00 +10°C° 0 mm 6 mps 743 mmHg 74%
    20:00 +9°C° 0 mm 5 mps 743 mmHg 75%
    21:00 +8°C° 0 mm 5 mps 743 mmHg 76%
    22:00 +8°C° 0 mm 4 mps 743 mmHg 77%
    23:00 +8°C° 0 mm 4 mps 743 mmHg 77%

    27 May, Monday

    Time Temperature Precipitation Wind Pressure Humidity
    00:00 +8°C° 0 mm 4 mps 743 mmHg 78%
    01:00 +8°C° 0 mm 4 mps 743 mmHg 78%
    02:00 +8°C° 0 mm 4 mps 743 mmHg 79%
    03:00 +7°C° 0 mm 4 mps 743 mmHg 84%
    04:00 +7°C° 0 mm 4 mps 743 mmHg 90%
    05:00 +7°C° 0 mm 4 mps 743 mmHg 96%
    06:00 +8°C° 0 mm 5 mps 743 mmHg 89%
    07:00 +9°C° 0 mm 6 mps 743 mmHg 83%
    08:00 +11°C° 0 mm 6 mps 743 mmHg 77%
    09:00 +11°C° 0.1 mm 6 mps 743 mmHg 80%
    10:00 +12°C° 0.1 mm 5 mps 743 mmHg 83%
    11:00 +12°C° 0.1 mm 4 mps 743 mmHg 86%
    12:00 +13°C° 0.1 mm 5 mps 743 mmHg 84%
    13:00 +14°C° 0.1 mm 5 mps 743 mmHg 82%
    14:00 +15°C° 0.1 mm 5 mps 743 mmHg 80%
    15:00 +14°C° 0.8 mm 4 mps 743 mmHg 86%
    16:00 +14°C° 0.8 mm 3 mps 743 mmHg 91%
    17:00 +14°C° 0.8 mm 2 mps 743 mmHg 96%
    18:00 +14°C° 0 mm 2 mps 743 mmHg 96%
    19:00 +14°C° 0 mm 2 mps 743 mmHg 96%
    20:00 +14°C° 0 mm 2 mps 743 mmHg 96%
    21:00 +13°C° 0 mm 2 mps 744 mmHg 96%
    22:00 +12°C° 0 mm 2 mps 744 mmHg 96%
    23:00 +10°C° 0 mm 2 mps 745 mmHg 96%
    Show more